Location: Bern�tre
(50.1974°N, 2.0915°E)
Time: 23:12:36
(UTC+00:00)

Cosmos 1844 - Pass Details

Date: 18 September 2020
Orbit: 824 x 866 km, 70.9° (Epoch: 31 October)

Event Time Altitude Azimuth Distance (km) Brightness Sun altitude
Rises 21:10:05 0° 224° (SW) 3,412 6.9 -28.6°
Reaches altitude 10° 21:12:37 10° 229° (SW) 2,473 6.1 -28.9°
Maximum altitude 21:18:09 53° 306° (NW) 1,034 4.4 -29.5°
Drops below altitude 10° 21:23:40 10° 23° (NNE) 2,459 6.4 -30.1°
Sets 21:26:11 0° 28° (NNE) 3,391 7.1 -30.4°
